Date,TemperatureHighF,TemperatureAvgF,TemperatureLowF,DewpointHighF,DewpointAvgF,DewpointLowF,HumidityHigh,HumidityAvg,HumidityLow,PressureMaxIn,PressureMinIn,WindSpeedMaxMPH,WindSpeedAvgMPH,GustSpeedMaxMPH,PrecipitationSumIn
2014-1-5,42.3,39.8,36.6,42.0,35.2,-99.9,99,95,97,30.16,29.79,4,-17,4,0.00
2014-1-6,53.2,37.5,15.0,53.0,28.1,-3.0,99,72,42,30.25,29.67,8,3,15,0.00
2014-1-7,25.9,17.1,9.2,11.0,2.7,-3.0,74,54,37,30.54,30.25,5,1,8,0.00
2014-1-8,45.7,28.2,13.8,18.0,11.7,6.0,89,55,21,30.61,30.50,5,0,7,0.03
2014-1-9,53.7,35.0,23.1,36.0,23.1,16.0,83,64,30,30.58,30.44,2,0,5,0.01
2014-1-10,46.0,42.5,39.5,44.0,41.6,37.0,99,96,72,30.44,30.08,1,0,4,0.01
2014-1-11,47.0,44.8,43.6,47.0,44.7,43.0,99,99,99,30.07,29.87,1,0,2,0.00
2014-1-20,64.1,50.1,42.9,33.0,23.9,-99.9,65,43,27,29.86,0.00,3,-54,8,0.00
2014-1-21,57.2,42.8,32.4,36.0,28.7,19.0,81,59,45,29.84,29.51,10,2,16,0.00
2014-1-22,36.3,28.7,21.9,18.0,12.7,5.0,69,53,28,30.09,29.85,4,0,9,0.00
2014-1-23,40.8,29.4,19.1,15.0,12.1,4.0,81,51,30,30.41,30.08,6,1,11,0.00
2014-1-24,28.7,21.2,13.3,8.0,0.3,-5.0,58,41,24,30.63,30.30,5,1,10,0.00
2014-1-25,41.2,30.9,18.9,20.0,10.5,1.0,53,43,32,30.30,29.73,7,2,18,0.01
2014-1-26,52.3,40.8,25.0,33.0,24.9,19.0,80,55,31,29.98,29.87,5,1,11,0.01
2014-1-27,64.9,51.7,40.4,40.0,34.8,27.0,65,54,37,30.03,29.78,5,1,9,0.01
2014-1-28,39.8,29.2,21.7,26.0,11.4,3.0,89,52,30,30.27,30.03,7,1,10,0.00
2014-1-29,30.4,23.6,15.4,18.0,13.5,7.0,86,67,39,30.38,30.17,4,0,7,0.00
2014-1-30,39.2,25.8,12.2,16.0,9.2,-99.9,85,56,34,30.43,30.25,3,-25,7,0.01
2014-1-31,56.6,34.1,17.7,22.0,17.5,13.0,86,57,22,30.25,30.14,5,0,8,0.04
2014-2-1,55.8,41.8,26.0,42.0,28.6,21.0,84,63,30,30.24,30.12,3,0,6,0.04
2014-2-2,67.7,52.3,41.6,54.0,47.3,40.0,98,84,61,30.14,29.98,8,1,9,0.01
2014-2-3,71.3,59.3,46.7,62.0,54.5,42.0,98,85,63,30.20,29.86,8,2,13,0.01
2014-2-4,46.2,40.2,38.0,42.0,38.0,36.0,98,92,79,30.34,30.10,3,0,8,0.00
2014-2-5,58.9,45.3,38.1,51.0,41.5,32.0,99,87,57,30.10,29.83,6,1,11,0.00
2014-2-6,43.8,38.1,32.3,32.0,28.3,25.0,83,69,52,30.33,30.10,3,0,12,0.00
2014-2-7,52.6,39.8,28.6,35.0,31.6,27.0,96,75,47,30.35,30.24,3,0,6,0.00
2014-2-8,57.1,43.3,35.5,39.0,35.6,33.0,92,76,48,30.26,30.09,3,0,6,0.00
2014-2-9,60.8,48.3,36.2,44.0,39.8,34.0,95,74,51,30.15,29.95,8,1,14,0.00
2014-2-10,42.5,39.5,37.2,38.0,36.2,35.0,91,88,83,30.04,30.02,0,0,0,0.00
2014-2-14,54.7,45.5,32.9,36.0,29.8,-99.9,84,60,46,29.84,0.00,3,-30,10,0.00
2014-2-15,48.6,40.7,29.4,40.0,30.0,17.0,98,70,29,30.06,29.56,11,2,21,0.00
2014-2-16,56.5,41.3,30.3,33.0,28.0,23.0,80,62,35,30.14,30.03,5,1,9,0.00
2014-2-17,37.9,36.0,34.1,31.0,29.8,28.0,83,78,74,30.29,30.14,2,0,5,0.00
2014-3-1,56.7,43.1,34.3,39.0,30.5,-99.9,90,68,49,30.36,0.00,3,-30,7,0.00
2014-3-2,72.0,55.3,36.3,50.0,43.8,34.0,95,69,44,30.25,29.91,7,1,11,0.00
2014-3-3,60.7,45.8,27.4,53.0,41.3,24.0,95,85,65,30.22,29.79,7,1,14,0.00
2014-3-4,39.8,31.3,20.3,23.0,17.3,11.0,83,58,41,30.34,30.21,6,1,11,0.00
2014-3-5,36.2,35.8,35.3,21.0,20.4,20.0,55,54,54,30.21,30.17,0,0,2,0.00
2014-3-9,70.6,58.0,47.4,44.0,35.2,-99.9,81,50,34,30.04,29.99,4,-49,7,0.00
2014-3-10,72.8,55.5,35.1,44.0,37.5,31.0,89,55,29,30.02,29.82,6,1,11,0.00
2014-3-11,78.5,62.0,40.3,49.0,43.5,39.0,97,56,25,29.82,29.67,6,1,10,0.00
2014-3-12,73.7,61.6,45.3,62.0,52.1,29.0,97,73,42,29.68,29.28,14,3,23,0.00
2014-3-13,51.3,41.2,30.8,28.0,18.6,9.0,69,43,19,30.24,29.69,7,2,19,0.00
2014-3-14,63.3,45.4,25.6,29.0,22.8,17.0,85,47,21,30.33,30.09,9,2,14,0.00
2014-3-15,71.1,57.4,43.0,40.0,36.3,29.0,71,47,28,30.10,29.97,6,1,13,0.00
2014-3-16,52.1,50.0,46.3,52.0,46.8,40.0,98,89,70,30.02,29.73,3,0,6,0.00
2014-3-17,44.6,35.5,32.6,44.0,34.7,32.0,97,97,94,29.97,29.77,4,1,13,0.00
2014-3-18,40.9,35.9,31.5,39.0,35.1,31.0,98,96,93,30.18,29.93,4,1,8,0.00
2014-3-19,50.3,42.9,38.7,47.0,41.5,38.0,99,95,87,30.19,30.00,4,0,8,0.00
2014-3-20,68.4,54.3,43.5,47.0,39.1,26.0,99,63,22,30.05,29.95,4,1,9,0.00
2014-3-21,69.2,52.9,33.8,38.0,32.4,27.0,89,50,25,30.17,30.04,4,1,10,0.00
2014-3-22,73.5,59.6,45.1,48.0,43.2,36.0,84,57,37,30.06,29.93,5,1,10,0.00
2014-3-23,59.5,48.2,36.2,46.0,43.1,35.0,96,83,51,30.13,29.91,5,0,11,0.00
2014-3-24,56.0,41.9,29.6,35.0,28.2,21.0,97,64,28,30.27,30.07,5,0,9,0.00
2014-3-25,48.6,41.0,35.3,41.0,33.4,25.0,94,76,40,30.07,29.80,6,1,15,0.00
2014-3-26,50.7,37.4,25.2,24.0,20.0,15.0,82,53,25,30.32,30.04,7,1,12,0.00
2014-3-27,62.5,45.3,27.2,44.0,27.6,22.0,82,55,26,30.45,30.25,8,2,15,0.00
2014-3-28,65.7,56.1,47.4,60.0,53.0,43.0,98,89,76,30.27,30.09,9,1,16,0.00
2014-3-29,67.3,60.7,55.9,64.0,59.2,53.0,99,94,84,30.11,29.61,3,1,10,0.00
2014-3-30,58.9,50.8,40.8,53.0,34.8,27.0,92,56,33,30.02,29.65,9,3,29,0.00
2014-3-31,75.0,53.1,34.6,38.0,31.0,24.0,87,51,16,30.15,30.02,5,0,6,0.00
2014-4-1,64.1,48.6,44.0,40.0,36.3,33.0,76,64,41,30.12,30.07,3,0,6,0.00
2014-5-2,70.2,61.1,54.7,54.0,43.4,-99.9,85,59,43,29.93,0.00,7,-18,9,0.00
2014-5-3,75.6,63.2,48.9,53.0,49.1,45.0,98,64,36,29.95,29.86,4,1,8,0.00
2014-5-4,85.0,68.1,49.0,56.0,51.7,47.0,95,60,32,30.02,29.85,6,1,10,0.00
2014-5-5,89.0,71.2,55.4,63.0,56.4,53.0,91,63,33,29.96,29.81,6,1,10,0.00
2014-8-31,93.7,79.7,75.7,76.0,71.4,73.0,90,73,56,30.06,0.00,3,1,7,0.00
2014-9-1,74.4,73.5,73.2,72.0,71.9,71.0,95,94,92,30.05,30.04,1,0,3,0.00
2014-10-9,77.8,62.9,62.6,64.0,57.2,60.0,91,75,56,30.09,0.00,1,0,7,0.00
2014-10-10,83.9,72.0,59.8,71.0,66.1,58.0,97,82,62,30.10,29.96,8,1,10,0.00
2014-10-11,85.7,74.8,69.2,72.0,69.9,68.0,97,86,59,29.99,29.90,8,2,14,0.00
2014-10-12,60.8,58.8,60.3,61.0,56.8,60.0,99,93,98,30.20,0.00,1,0,4,0.00
2014-10-13,76.2,66.4,60.5,72.0,65.7,60.0,100,97,87,30.23,30.09,2,0,3,0.00
2014-10-14,80.8,73.2,69.7,72.0,70.4,69.0,99,91,67,30.08,29.79,8,2,16,0.00
2014-10-15,72.7,64.1,58.2,65.0,57.6,53.0,98,81,54,29.86,29.78,4,1,13,0.00
2014-10-16,69.3,60.1,52.6,58.0,54.6,52.0,97,83,61,29.88,29.77,5,0,8,0.00
2014-10-17,73.5,59.2,47.0,60.0,53.6,47.0,99,83,57,29.94,29.82,6,0,9,0.00
2014-10-18,76.6,63.1,53.5,60.0,54.0,47.0,98,75,45,29.93,29.77,4,1,10,0.00
2014-10-19,68.7,55.4,44.4,51.0,46.8,43.0,97,75,46,30.12,29.94,4,0,7,0.00
2014-10-20,71.9,55.5,43.1,55.0,49.6,42.0,98,83,53,30.14,29.98,7,1,8,0.00
2014-10-21,74.9,60.4,48.1,55.0,51.3,44.0,99,75,45,29.98,29.83,4,0,10,0.00
2014-10-22,66.0,55.2,45.2,47.0,43.5,41.0,89,66,48,30.09,29.95,9,1,12,0.00
2014-10-23,67.8,52.6,42.4,50.0,44.2,40.0,95,76,46,30.09,29.98,5,0,8,0.00
2014-10-24,69.4,53.9,43.4,54.0,47.0,42.0,97,80,46,30.08,29.97,2,0,7,0.00
2014-10-25,73.6,54.7,40.3,53.0,45.0,40.0,99,75,32,30.04,29.92,2,0,6,0.00
2014-10-26,81.1,62.5,49.5,59.0,52.0,47.0,97,72,35,29.97,29.87,5,0,11,0.00
2014-10-27,81.3,59.9,46.0,58.0,49.5,43.0,95,74,32,30.11,29.97,3,0,5,0.00
2014-10-28,83.7,65.5,51.7,65.0,58.2,51.0,99,80,46,30.13,30.02,6,0,10,0.00
2014-10-29,77.1,66.3,56.7,63.0,59.2,55.0,95,79,58,30.02,29.89,10,1,11,0.00
2014-11-14,44.6,36.6,29.8,26.0,21.1,17.0,73,53,40,30.35,30.16,3,1,8,0.01
2014-11-15,45.9,33.5,25.9,25.0,19.9,16.0,83,60,37,30.48,30.34,2,0,7,0.07
2014-11-16,50.9,42.2,28.3,40.0,32.6,24.0,85,70,47,30.39,30.05,5,0,6,0.03
2014-11-17,60.6,50.1,38.4,60.0,47.8,30.0,99,92,72,30.03,29.63,8,1,11,0.29
2014-11-18,38.3,31.6,23.8,30.0,18.4,12.0,77,59,39,30.34,29.94,5,1,11,0.07
2014-11-19,44.7,32.3,19.3,21.0,17.4,15.0,88,58,31,30.44,30.26,7,1,10,0.09
2014-11-20,58.5,44.3,30.6,35.0,28.2,18.0,78,55,38,30.26,30.07,10,1,10,0.06
2014-11-21,58.7,43.1,32.0,32.0,26.3,19.0,88,56,23,30.51,30.19,2,0,8,0.02
2014-11-22,57.0,39.7,25.3,32.0,24.2,19.0,83,57,27,30.57,30.31,3,0,6,0.01
2014-11-23,45.1,43.0,39.8,44.0,38.6,33.0,97,85,70,30.32,30.18,1,0,3,0.08
2014-12-7,43.0,36.2,38.6,27.0,22.9,25.0,61,49,51,30.41,0.00,2,1,5,0.00
2014-12-8,42.8,38.9,37.3,38.0,32.1,25.0,97,78,60,30.41,30.18,3,0,7,0.01
2014-12-9,53.8,44.1,37.7,44.0,38.3,34.0,98,82,63,30.16,29.94,5,1,9,0.00
2014-12-10,52.7,40.8,29.2,36.0,31.7,27.0,91,72,46,30.08,29.99,5,1,11,0.00
2014-12-11,50.1,34.7,25.4,31.0,26.1,24.0,96,74,38,30.18,30.03,3,0,11,0.05
2014-12-12,57.8,40.7,26.0,27.0,23.8,22.0,87,56,25,30.29,30.16,5,0,7,0.05
2014-12-13,63.7,44.1,29.2,30.0,25.4,21.0,82,52,19,30.18,30.05,3,0,7,0.12
2014-12-14,63.3,43.7,30.1,36.0,30.4,25.0,87,63,31,30.09,30.00,5,0,5,0.05
2014-12-15,62.1,44.7,31.8,43.0,36.5,30.0,95,75,45,30.14,30.04,2,0,6,0.03
2014-12-16,58.6,47.3,36.9,56.0,45.1,35.0,98,92,83,30.05,29.86,6,0,9,0.02
2014-12-17,59.7,45.0,33.7,43.0,38.9,33.0,99,81,52,30.15,30.03,3,0,7,0.01
2014-12-18,56.7,42.9,34.9,37.0,33.9,29.0,96,74,37,30.20,30.07,2,0,5,0.01
2014-12-19,58.0,43.3,32.5,37.0,33.6,29.0,92,72,41,30.20,30.08,2,0,5,0.02
2014-12-20,44.3,42.1,39.3,40.0,37.4,34.0,94,84,69,30.27,30.18,2,0,5,0.01
2014-12-21,49.9,44.5,40.0,42.0,39.7,37.0,91,83,73,30.30,30.17,3,0,7,0.01
2014-12-22,45.4,40.0,37.9,42.0,39.2,37.0,98,97,82,30.18,30.02,2,0,7,0.01
2014-12-23,45.2,41.2,38.0,45.0,40.9,38.0,99,98,98,30.09,29.89,1,0,5,0.01
2014-12-24,63.8,54.2,45.2,63.0,53.7,45.0,100,98,86,29.89,29.65,6,1,11,0.01
2014-12-25,56.9,48.2,33.9,53.0,41.5,33.0,95,79,52,30.26,29.70,5,1,11,0.01
2014-12-26,59.3,41.9,30.4,42.0,35.6,30.0,99,81,46,30.38,30.24,2,0,5,0.05
2014-12-27,63.8,46.9,32.4,45.0,38.7,31.0,98,76,42,30.35,30.19,3,0,8,0.03
2014-12-28,59.3,55.7,51.4,58.0,53.0,43.0,98,90,71,30.19,29.99,5,1,9,0.01
2014-12-29,57.0,54.4,46.1,56.0,53.8,46.0,99,97,93,30.13,30.00,2,0,5,0.02
2014-12-30,45.9,39.7,30.8,45.0,38.4,30.0,98,95,87,30.46,30.11,4,0,7,0.00
2014-12-31,47.5,35.5,28.8,37.0,31.7,28.0,98,87,60,30.48,30.37,2,0,5,0.05
2015-1-1,54.0,40.7,27.9,40.0,33.8,27.0,99,79,49,30.37,30.23,7,0,8,0.07
2015-1-2,51.2,47.3,41.6,47.0,42.8,35.0,98,85,60,30.36,30.23,3,0,7,0.02